User: anonymous   Login
Location: Radomski Observatory
(40.2854°N, 79.5145°W)
Time: 02:33:14
(UTC-04:00)
Language:

Uosat F - Orbit

View from above orbital plane
View from above orbital plane
View from above satellite
View from above satellite

Ground track
Ground track

The orbit data is extracted from the following two-line orbital elements,

1 21575U 91050B   15181.48838374  .00000046  00000-0  28810-4 0  9999
2 21575 098.7395 169.9115 0006144 277.9754 196.9874 14.40643355257947
Epoch (UTC): 30 June 2015 11:43:16
Eccentricity: 0.0006144
inclination: 98.7395°
perigee height: 752 km
apogee height: 761 km
right ascension of ascending node: 169.9115°
argument of perigee: 277.9754°
revolutions per day: 14.40643355
mean anomaly at epoch: 196.9874°
orbit number at epoch: 25794

The dashed part of the orbit path shows where the satellite is in the earth's shadow,  

DLR